Location: Banff
(51.1667°N, 115.5667°W)
Time: 20:33:11
(UTC+00:00)

Vanguard 1 Rocket - Pass Details

Date: 01 December 2020
Orbit: 655 x 4221 km, 34.3° (Epoch: 17 January)

Event Time Altitude Azimuth Distance (km) Brightness Sun altitude
Exits shadow 07:51:43 21° 108° (ESE) 5,774 11.3 -60.5°
Drops below altitude 10° 07:57:21 10° 95° (E) 6,297 11.6 -60.3°
Sets 08:02:03 0° 87° (E) 6,894 12.0 -60.1°
